Погода Усть-Уса

Погода Усть-Уса : погода сейчас, прогноз погоды и архив. Всё, что Вы хотите узнать о погоде Усть-Уса!

Хотите узнать прогноз погоды Усть-Уса? Тогда Вам сюда: Погода Усть-Уса

Поиск расширенной информации на нашем сайте:

Полезная информация: Колосовский адвокат екатеринбург lawyer196.ru.
Брошюровочные машины выбрать и купить, продажа. Брошюровочная машина в каталоге.

Другие новости

Новости СМИ2

Главная страница сайта

Новости сайта

02.10.2013

Напоминаем, что на нашем новом сайте вы можете получить высокодетализированные прогнозы погоды по пунктам России, СНГ и мира (включающие важные для авиации метеовеличины, такие как направление и скорость ветра, видимость, явления погоды, количество и форма облачности, нижняя и верхняя граница облачности), а также ознакомиться с разнообразными материалами по авиационной метеорологии и подборкой полезных ссылок на эту тему.

Сайт Метеоцентр.Азия посвящён разработке технологий оптимизации авиаметеорологического обслуживания, включая проектирование и перспективное создание нескольких автоматизированных авиаметеорологических систем:
- система выпуска высокодетальных прогностических карт явлений погоды для нижнего воздушного пространства по России и ближнему зарубежью;
- система верификации прогнозов TAF (выпускаемых синоптиками официальных АМСГ РФ и ближнего зарубежья) и AUTOTAF (выпускаемых сайтом Метеоцентр.Азия) - выявление ошибок, онлайн-сопоставление с фактической погодой METAR, автоматическое внесение коррективов в прогнозы при резком отклонении фактической погоды от прогноза, подсчёт оправдываемости прогнозов по элементам и в целом;
- система обработки, анализа и отображения авиаметеорологической информации для применения провайдерами метеорологической информации.

Рекомендуем: Актуальная информация дорнит ростов тут.

Погода Усть-Уса - сегодня

Время (UTC), дата Ветер
(°,м/с) 
Видим.   Явления Облачность Т
(°С)
Тd
(°С)
f(%) Тe
(°С)
Pmin
(гПа)
dP
(гПа)
Po
(мм)
O2
(г/м3)
Тmin Tmax R s Состояние
почвы
06 27.03.17 200 (Ю) 10 км  слаб. снег  9/4 300 м средняя 
[Frnb|As trans]
-2.9 -3.9 93 -2  985.1  -1.4  732  298           
09 27.03.17 240 (ЮЗ) 20000 м  {снег}  9/8 300 м верхняя 
[Frnb|Ci fib]
+0.3 -4.2 72 -1  984.8  -0.1  732  295           
12 27.03.17 240 (ЮЗ) 20000 м  {снег}  8/5 300 м средняя, верхняя 
[Frnb|Ac trans|Ci fib]
+1.7 -10.2 41 -1  984.7  -0.1  731  294           
15 27.03.17 160 (Ю) 20000 м    9/4 1000 м средняя 
[Sc|Ac trans]
-0.3 -9.7 49 -1  984.8  0.1  732  296    +2.3  0.8     
18 27.03.17 170 (Ю) 20000 м    10/5 1000 м средняя 
[Sc|Ac und]
-1.3 -6.9 66 -4  983.8  -1.1  731  297           
21 27.03.17 190 (Ю) 20000 м    ясно 
-2.3 -7.6 67 -4  983.3  -0.5  730  298           
00 28.03.17 180 (Ю) 20000 м  слаб. снег  9/0 средняя 
[As trans]
-3.2 -5.1 87 -6  983  -0.3  730  298           
03 28.03.17 190 (Ю) 20000 м  слаб. снег  9/4 600 м средняя 
[Sc|Ac As]
-3 -4.7 88 -6  982.9  -0.1  730  298  -3.3    0.2  56  равномерный
сухой снег
100% 
06 28.03.17 180 (Ю) 20000 м  {снег}  9/9 600 м 
[Sc]
-0.9 -4.3 78 -3  982.5  -0.4  730  295           
09 28.03.17 210 (ЮЗ) 4{10}  20000 м    10/10 600 м 
[Sc]
+0.1 -4.6 71 -2  983.2  0.8  730  295           
12 28.03.17 230 (ЮЗ) 20000 м    10/10 1000 м 
[Sc]
+0.8 -5.1 65 -2  983.9  0.7  731  294           
15 28.03.17 230 (ЮЗ) 20000 м    9/9 1000 м 
[Sc]
-0.2 -7.4 58 -2  984.8  0.8  731  296    +0.9  0.0     
18 28.03.17 260 (З) 20000 м    10/10 1000 м 
[Sc]
-2.6 -5.1 83 -5  984.9  0.1  732  298           
21 28.03.17 290 (З) 4{10}  20000 м    9/9 1000 м 
[Sc]
-4.8 -7.9 79 -8  985.4  0.4  732  301           
00 29.03.17 250 (З) 20000 м    9/9 1000 м 
[Sc]
-8 -10.4 83 -10  985.7  0.2  732  305           
03 29.03.17 190 (Ю) 20000 м    1/1 1000 м 
[Sc]
-9.3 -11.2 86 -11  985.7  -0.1  732  306  -9.8      56  равномерный
сухой снег
100% 
06 29.03.17 220 (ЮЗ) 20000 м    9/8 300 м верхняя 
[Frnb|Ci fib]
-5.5 -9.4 74 -8  985.2  -0.3  732  302           
09 29.03.17 220 (ЮЗ) 20000 м  слаб. ливневой дождь  10/10 300 м кучево-дожд. 
[Cb calv]
-2.9 -7.4 71 -6  986.4  1.3  733  299           
12 29.03.17 220 (ЮЗ) 20000 м  {ливн. осадки}  4/3 300 м кучево-дожд., верхняя 
[Cb calv|Ci fib]
-1 -8.5 57 -4  987.3  0.9  733  297           
15 29.03.17 210 (ЮЗ) 3{10}  20000 м    4/1 1000 м верхняя 
[Sc|Ci fib]
-3.1 -9.8 60 -5  988  0.6  734  300    -0.9  0.0     
18 29.03.17 170 (Ю) 20000 м    ясно 
-6 -9.7 75 -9  988  -0.1  734  303           
21 29.03.17 140 (ЮВ) 20000 м    ясно 
-8.4 -10.8 83 -11  987.3  -0.8  733  306           
00 30.03.17 150 (ЮВ) 10 км  слаб. снег  10/0 средняя 
[Ac As]
-8.1 -9.6 89 -11  986.7  -0.5  733  305           
03 30.03.17 290 (З) 20000 м  {снег}  10/6 1000 м средняя 
[Sc|Ac und]
-7.2 -8.6 90 -10  988.4  1.7  734  305  -9.5    0.2  56  равномерный
сухой снег
100% 
06 30.03.17 290 (З) 6-10{11}  20000 м  слаб. ливневой снег  9/9 300 м кучево-дожд. 
[Cb calv]
-4 -6.9 80 -8  990.2  1.8  735  301           
Время (UTC), дата Ветер
(°,м/с) 
Видим.   Явления Облачность Т
(°С)
Тd
(°С)
f(%) Тe
(°С)
Pmin
(гПа)
dP
(гПа)
Po
(мм)
O2
(г/м3)
Тmin Tmax R s Состояние
почвы

Для получения пояснительной информации подведите курсор к названию столбца.

ПОГОДА Усть-Уса - архив

Всё, что Вы хотите узнать о погоде Усть-Уса - удобно и подробно!

Выберите нужную дату (начиная с 1 января 2015* года) и нажмите кнопку "Найти".
Будут отображены архивные сводки погоды по пункту Усть-Уса, начиная с указанной даты.


Отображать данные в формате CSV (для использования в таблицах Excel)


Внимание! Наш архив погоды предназначен исключительно для личного некоммерческого использования в познавательных целях. Если Вам необходимы официальные справки о состоянии погоды (для производственных, юридических, коммерческих и т.п. целей), обращайтесь в органы Росгидромета.

*Примечание: данная дата относится к архиву по метеостанциям СССР (Россия, СНГ, Балтия).
Архив по метеостанциям Зарубежной Европы и Азии (кроме Китая) хранится 10 дней, по другим регионам земного шара (Китай, Африка, Америка, Австралия, Океания) - 1 день.

Усть-Уса - район местоположения метеостанции


Название, широта, долгота, высота метеостанции:
Усть-Уса 66°ш. 56.9°д. 78 м над ур. моря [Российская Федерация]

Дополнительная информация

В oтличие oт бoльшинства пoгoдных сайтoв мы публикуем пoдрoбную метеoинфoрмацию в детальнoм прoфессиoнальнoм фoрмате.

Характеристики температуры и влажнoсти вoздуха измеряются на высoте 2 м в тени вдали oт зданий и деревьев.
Скoрoсть ветра измеряется на высoте 10 м (на урoвне рoста челoвека скoрoсть ветра ниже в 1.5-2 раза). Если метеoстанция нахoдится в гoрoде или в лесу, тo скoрoсть ветра занижена на 2-4 м/с пo сравнению с oткрытым местoм. Скoрoсть ветра над акватoриями крупных рек и oзёр, а также на вершинах хoлмoв на 2-5 м/с выше, чем в oбычных услoвиях.
Атмoсфернoе давление в разных тoчках местнoсти мoжет значительнo oтличаться oт давления на метеoстанции, в зависимoсти oт услoвий рельефа (при пoдъёме на 10 м давление пoнижается примернo на 1 мм рт.ст.).